Theta_e
311 309 307 305 305 305 305 304 302 298 298 296 296 296 299 300 304 304 301 306 306 306 306 305 305 306 307 307 307 307 307 307 307 307 308 308 308 309
309 307 306 306 305 305 305 305 305 302 298 298 297 297 299 300 301 300 300 304 305 304 303 302 303 304 304 304 304 305 305 305 305 305 306 306 307 308
306 305 304 305 305 305 305 306 305 306 302 297 297 296 296 296 299 299 300 297 295 303 302 301 302 302 303 303 303 303 303 304 304 304 305 305 307 307
306 305 305 306 304 304 304 302 302 302 302 298 294 294 294 295 294 297 298 298 293 299 301 301 301 301 302 302 302 302 302 301 302 303 304 304 305 306
306 305 304 304 302 300 299 296 296 297 296 294 293 295 296 297 295 295 294 292 295 301 302 301 301 301 303 303 302 302 300 300 301 300 303 303 303 304
305 304 303 301 298 296 296 296 296 294 294 295 294 294 295 294 293 290 290 291 292 296 299 300 301 301 301 301 301 299 298 299 300 301 301 301 301 301
298 298 298 299 302 299 297 296 295 295 294 294 293 292 291 289 288 289 288 288 290 290 290 290 290 290 292 296 297 298 298 299 300 300 300 299 298 299
296 298 301 304 304 304 304 303 298 293 292 290 289 288 287 287 287 287 286 286 285 289 287 287 289 287 289 290 298 298 297 297 298 298 297 298 298 298
297 298 299 301 300 299 303 302 300 300 297 290 287 287 286 287 286 286 285 285 285 288 287 285 287 286 288 291 296 297 297 297 297 297 297 297 298 297
294 294 295 294 297 296 294 292 291 292 293 293 289 288 288 288 288 288 286 286 286 287 286 283 285 284 286 287 297 296 296 296 296 297 297 297 297 296
293 292 291 291 299 299 291 289 291 292 299 299 297 296 295 294 292 287 285 284 283 283 286 284 283 283 284 285 288 293 294 294 295 295 296 296 296 295
288 293 298 294 298 298 291 289 288 289 290 292 292 291 293 290 294 287 286 283 285 282 286 283 283 286 281 284 285 286 286 292 294 293 294 295 295 289
288 290 291 298 298 297 297 291 291 292 294 290 290 290 290 291 291 291 291 289 287 286 290 290 287 286 286 285 287 286 285 286 287 288 292 294 294 293
290 290 292 298 296 296 294 297 297 294 290 289 288 288 288 288 289 290 290 290 290 289 291 290 288 287 285 284 284 283 284 286 285 285 289 293 294 295
290 294 296 294 294 291 293 293 294 290 289 287 287 287 288 289 290 290 291 290 291 291 292 290 289 288 287 285 284 282 285 284 286 284 289 290 290 290
295 291 291 291 292 290 290 292 291 289 289 288 288 289 289 289 288 289 288 288 287 288 290 290 289 288 286 285 282 283 283 283 285 286 288 288 287 288
289 287 285 285 284 285 289 289 290 289 288 289 289 288 288 289 289 289 288 287 286 285 285 288 289 289 289 287 281 283 284 283 285 286 285 284 286 286
288 285 284 284 283 283 284 286 288 288 288 288 287 288 288 288 287 288 288 287 286 286 285 286 286 284 285 284 289 284 284 283 284 285 284 282 283 287
284 284 283 283 283 283 285 285 286 285 286 286 286 287 287 288 288 286 286 287 286 285 286 286 284 282 282 280 284 291 284 285 284 284 284 283 284 287
286 284 284 284 283 283 285 287 288 287 287 287 288 288 287 286 284 284 286 285 285 286 286 286 284 284 284 284 284 286 291 285 284 285 285 286 287 292
288 286 285 284 284 284 285 285 285 284 285 286 286 286 287 286 284 285 285 287 287 284 279 282 285 291 287 286 282 282 285 290 290 287 287 287 287 288
288 286 286 285 285 285 285 285 284 285 285 286 286 286 285 285 286 285 285 285 283 282 283 285 286 286 284 284 283 284 286 288 291 292 293 292 288 285
286 285 284 285 285 285 284 284 283 285 286 286 286 285 285 285 286 286 285 285 284 285 285 283 284 285 285 285 285 284 285 286 287 286 288 293 294 294
Wind_Speed
8 8 5 3 5 4 4 4 5 4 4 3 2 1 1 0 3 4 4 3 3 5 4 5 7 8 9 9 9 10 10 10 10 10 10 11 11 12
6 10 8 5 6 5 5 4 4 4 3 2 2 2 3 2 2 4 3 2 1 2 3 4 6 9 9 9 9 8 8 8 10 10 11 11 11 12
7 9 8 6 5 4 4 4 3 3 3 2 2 1 1 1 2 2 2 3 2 2 3 4 6 7 7 6 7 7 8 9 10 11 11 11 12 13
7 9 6 4 5 4 3 3 3 2 3 3 1 1 1 1 2 2 1 1 1 4 6 4 3 3 5 6 8 7 7 7 10 11 13 12 12 12
6 6 5 5 3 1 2 3 2 2 2 3 2 1 1 1 2 1 1 2 3 5 7 4 3 4 8 9 7 8 6 6 11 11 10 9 13 14
5 5 4 4 5 4 4 4 3 4 3 3 2 1 1 1 3 1 2 2 3 3 5 4 6 7 6 7 5 3 4 7 10 8 7 11 13 15
5 4 4 6 9 7 4 4 4 3 3 3 2 2 1 2 1 1 1 2 3 2 3 3 3 3 4 7 5 3 6 9 9 9 9 10 13 15
6 5 4 9 9 11 11 9 5 3 3 3 2 1 2 1 1 1 1 2 3 1 2 3 2 3 3 3 9 3 6 7 10 10 10 11 13 14
6 6 5 5 8 6 10 9 9 10 8 4 4 3 3 1 2 0 0 2 3 4 0 1 3 3 3 5 8 3 8 10 11 11 10 12 13 13
6 6 7 5 5 5 5 5 5 6 6 5 6 4 3 2 2 2 2 2 2 1 2 2 3 3 4 4 12 12 13 12 13 15 14 15 15 12
6 6 6 5 7 8 6 6 5 2 10 13 9 6 4 4 1 2 2 2 2 2 4 2 2 3 1 3 4 10 14 13 16 14 14 15 10 10
5 6 10 6 5 5 3 4 6 5 3 4 2 4 3 2 3 3 2 2 1 2 2 2 1 3 4 2 3 4 5 12 15 13 13 12 14 3
4 3 2 6 7 5 6 4 4 5 6 4 2 4 3 1 2 1 1 2 2 3 3 1 1 1 2 3 2 5 3 6 5 6 11 11 14 11
5 3 4 9 6 6 4 6 5 5 3 3 3 1 1 1 2 2 2 2 2 4 4 2 2 2 2 4 5 2 3 6 4 4 5 10 14 13
4 7 8 6 6 7 5 4 4 2 2 3 2 2 1 1 2 2 2 3 3 4 3 1 2 3 3 5 5 3 6 4 4 3 7 6 6 6
9 6 6 5 5 3 3 3 3 2 2 1 0 1 1 1 2 1 1 1 1 2 3 5 4 3 3 5 4 6 5 3 4 5 5 4 4 5
6 3 1 1 2 2 2 2 2 0 1 0 1 1 2 2 2 1 2 2 1 2 2 3 4 4 4 6 3 5 6 4 5 5 4 4 5 5
3 2 2 3 3 2 2 2 2 2 1 1 1 2 2 2 3 2 1 1 3 3 3 2 2 3 5 4 6 4 3 3 4 6 4 3 5 5
3 2 2 2 1 2 2 2 1 1 1 2 1 2 3 2 3 2 3 2 3 3 3 2 3 2 7 8 4 5 3 7 4 5 4 4 6 8
2 3 3 3 3 2 2 2 2 1 1 1 1 2 1 1 2 2 3 4 3 3 3 3 3 3 4 5 6 8 9 4 5 7 7 5 7 16
3 3 3 3 2 2 2 1 1 1 1 0 1 1 2 2 2 3 3 7 6 1 3 4 4 13 4 3 4 5 6 10 9 7 7 7 7 5
4 3 4 3 3 3 3 2 1 1 1 1 1 2 2 2 2 2 3 3 3 3 3 4 5 4 3 5 8 9 7 7 9 12 13 12 4 4
3 4 4 3 3 3 2 1 1 1 1 1 2 2 3 2 3 3 3 3 4 4 4 4 3 3 5 5 9 7 11 10 7 8 9 14 12 14
Wind_Direction
118 115 105 83 86 82 92 118 135 144 209 219 178 249 158 134 88 113 107 128 105 91 70 34 7 349 335 325 324 325 323 324 321 329 321 328 325 319
112 118 114 96 82 75 88 84 87 125 151 177 197 191 201 167 137 139 157 110 237 105 66 30 7 341 329 330 335 332 329 334 333 330 326 322 315 312
79 95 90 91 90 78 76 76 93 106 164 168 178 202 168 180 120 104 71 71 36 302 274 14 341 339 340 345 347 334 330 332 333 331 322 312 321 324
105 100 101 98 87 90 104 124 138 147 131 151 117 141 178 184 115 88 24 13 348 318 317 313 309 356 330 315 325 314 326 345 339 336 329 324 322 327
119 126 135 116 126 131 97 107 115 127 93 114 121 112 103 106 93 30 6 351 306 301 321 317 307 304 314 295 310 26 15 349 322 327 326 345 342 341
105 118 140 156 147 134 123 126 113 93 93 93 79 90 134 77 77 68 357 352 309 328 330 28 25 350 352 349 80 51 17 349 330 339 354 355 335 329
87 97 113 128 133 136 126 106 105 99 91 93 87 66 351 22 71 5 77 328 313 14 35 348 341 6 1 13 350 344 9 346 342 341 337 327 316 316
108 98 97 113 122 118 116 106 108 105 93 101 93 134 40 80 35 124 108 39 331 7 42 314 19 23 13 9 349 4 13 345 338 335 325 315 315 315
100 96 89 83 83 87 108 97 85 85 91 118 112 108 114 199 182 58 87 140 238 300 177 278 10 14 357 344 330 40 350 349 342 322 317 316 314 318
96 110 109 108 121 112 106 99 86 93 103 97 105 132 149 169 135 178 201 261 285 20 35 71 9 331 331 337 51 28 1 352 352 338 335 333 331 329
80 89 107 112 119 112 98 115 129 127 128 120 110 71 42 41 76 68 36 46 352 17 355 89 335 302 310 306 352 350 348 339 340 334 332 333 328 330
79 76 103 94 76 75 97 129 160 193 181 95 57 73 4 308 72 120 134 66 69 7 257 95 278 16 341 284 305 323 316 309 320 316 324 327 336 312
111 100 78 92 102 76 86 108 164 150 136 112 117 70 320 215 212 181 58 59 336 293 275 99 333 3 199 295 296 290 301 299 298 299 311 304 313 328
139 132 124 105 97 74 75 73 100 94 113 90 60 30 284 355 13 16 355 280 243 237 269 271 234 224 247 284 290 297 283 286 276 283 296 302 302 307
125 131 113 89 59 32 15 9 68 70 66 65 345 283 250 271 305 308 305 303 294 286 284 256 240 267 228 256 277 264 300 282 283 270 308 298 291 290
126 110 122 124 107 58 40 25 100 89 70 24 4 302 301 299 293 271 254 302 308 306 334 330 296 260 259 256 242 275 264 266 288 290 278 278 282 283
128 90 99 123 144 128 101 135 148 99 337 310 178 268 285 293 291 266 231 269 272 285 279 281 290 275 265 268 258 255 276 268 265 278 295 287 284 265
120 152 179 178 166 164 143 235 223 257 241 257 263 262 282 288 294 311 334 254 278 281 276 276 300 328 318 305 269 259 282 265 277 284 282 276 283 290
118 154 184 178 186 177 185 233 235 225 226 243 248 274 275 302 329 317 293 314 283 282 295 291 311 299 318 316 272 299 283 292 287 294 276 261 284 293
129 165 182 184 171 193 202 192 155 112 81 5 308 287 268 292 309 298 304 278 290 316 316 297 285 284 298 311 309 300 283 272 283 295 296 284 257 272
192 200 190 182 173 184 175 146 162 216 225 192 294 250 268 259 282 286 287 329 332 297 286 295 274 307 301 291 308 289 290 289 273 280 288 293 300 297
199 185 176 168 159 168 175 177 197 270 0 32 340 328 313 306 312 336 316 299 284 275 272 287 297 297 293 292 301 301 295 298 300 295 286 280 275 293
166 154 155 147 138 143 137 157 193 196 94 347 328 330 322 333 307 293 301 311 295 297 302 294 289 287 291 288 299 301 302 304 306 307 307 308 295 291